Starlink 11392

operational
NORAD ID: 63056 Int'l Des: 2025-035 Owner: SPXS Country: US Constellation: starlink
LEOCIRCULAR

About Starlink 11392

Description loading...

Live Position

Loading 3D Globe...

Upcoming Passes

Altitude History

Altitude vs Time

uPlot chart will show altitude changes over time

Two-Line Element Set

1 63056U 25035E 25258.29272943 .00501680 00000-0 36379-2 0 9995
2 63056 42.9977 352.7414 0003253 156.8828 203.2186 15.71129302 33635
Epoch: Sep 15, 2025 • Age: 9 hours

Current Status

Altitude 355.4 km
Velocity 7.70 km/s
Sub-Earth Point 9.84°N, 122.61°E
Launch Date Feb 21, 2025
Age 0.5 years
Type internet

Technical Details

Classification Payload
Mass 960.00 kg
Dry Mass 910.00 kg
Total Mass 960.00 kg
Length 0.30 m
Diameter 4.10 m
Span 29.00 m
Shape Box + pan
Manufacturer SPXS
Bus Type Starlink V2MD
Phase Status In Orbit
Owner/State SPXS/US

Large Constellations

Loading constellations...